Weather in Staraya Kamenka

Russia / Penza Oblast     52°58′25″N   44°57′15″E
temp.,
°C
wind,
m/s
gust,
m/s
humid.,
%
clouds,
%
prec.,
mm/h
press.,
hPa
HPBL,
m
7 march, sun
sun700:00−9nne1197100 1.8 101426
03:00−11wnw3397100 2.2 101460
06:00−15w339692 0.0 101532
09:00−12wsw589565 0.1 1015238
12:00−8sw7119285 0.0 1012533
15:00−6sw8148792 0.0 1009883
18:00−5sw101693100 0.6 10061036
21:00−5sw101990100 1.6 10021132
8 march, mon
mon800:00−4sw111891100 0.9 998976
03:00−3wsw111791100 1.4 998957
06:00−7w6158899 0.1 1000513
09:00−7wsw7138750 0.1 1003578
12:00−5wsw610820 0.0 1003850
15:00−3wsw6108750 0.1 10031142
18:00−5wsw51190100 0.5 1003440
21:00−8wsw4109496 0.6 1005324
9 march, tue
tue900:00−12w479526 0.0 1007102
03:00−15w449713 0.0 100867
06:00−17w239959 0.0 101021
09:00−13wnw359570 0.0 1012189
12:00−10wnw359097 0.0 1012366
15:00−9wnw469198 0.0 1013473
18:00−13wnw3496100 0.0 101380
21:00−14wnw339799 0.1 101571
10 march, wed
wed1000:00−15nw359794 0.1 101697
03:00−19nw3310086 0.2 101826
06:00−21nw3410082 0.0 101984
09:00−19nw479791 0.1 1021320
12:00−17nw5790100 0.0 1022582
15:00−16nw5789100 0.1 1023692
18:00−21nw4796100 0.0 1024120
21:00−25nw349888 0.1 102732
11 march, thu
thu1100:00−27nw33980 0.0 102823
03:00−27nw23980 0.0 102920
06:00−27wnw33960 0.0 103025
09:00−21wnw46900 0.0 1030225
12:00−17wnw46850 0.0 1030330
15:00−14w57870 0.0 1029370
18:00−19w34930 0.0 103050
21:00−21wsw34900 0.0 103242